sat.trackr.live / text

‹ back to catalog

STARLINK-5977

NORAD 56791 · 2023-078AA

PAYLOAD ACTIVE UNKNOWN

§ Identity

Operator
Country
US
Launch date
2023-05-31
Launch site
AFWTR
Launch vehicle
Mass (kg)
RCS (m²)

Purposes: comms

External: N2YO · Heavens-Above · Gunter

§ Orbital elements

Epoch: 2026-09-20T13:38:04.464672Z

Period
96.11 min
Inclination
69.9996°
Eccentricity
0.0003146
Mean motion
14.98331707 rev/d
Perigee alt
569.9 km
Apogee alt
574.2 km
Semi-major
6,950.2 km
B*
-3.4126e-6
RAAN
212.9976°
Arg perigee
270.0390°
Mean anomaly
90.0408°
Rev number
18,187

§ Raw data

STARLINK-59771 56791U 23078AA  26263.56810723 -.00000134  00000+0 -34126-5 0  99992 56791  69.9996 212.9976 0003146 270.0390  90.0408 14.98331707181878

JSON: /api/v1/satellites/56791 · /tle

For live sub-satellite position, see the globe view (requires WebGL).

§ Visibility from observer

Set your observer location to see the next 7 days of passes ≥ 10°. The values pass through the URL so the page stays shareable.

No JS? Fill the form by hand. The geolocation button needs JavaScript.